Location: Casco Millpond
(44.5581°N, 87.6111°W)
Time: 21:25:29
(UTC+00:00)

CZ-2D R/B - Pass Details

Date: 16 January 2026
Orbit: 525 x 595 km, 98.0° (Epoch: 10 February)

Event Time Altitude Azimuth Distance (km) Brightness Sun altitude
Rises 23:21:48 0° 134° (SE) 2,671 6.6 -7.9°
Reaches altitude 10° 23:24:13 10° 119° (ESE) 1,778 5.5 -8.3°
Maximum altitude 23:27:14 23° 67° (ENE) 1,173 4.4 -8.8°
Drops below altitude 10° 23:30:15 10° 15° (NNE) 1,778 5.6 -9.3°
Sets 23:32:40 0° 0° (N) 2,672 6.6 -9.7°
